Location: Alulod
(14.2076°N, 120.8898°E)
Time: 04:08:53
(UTC+00:00)

USA 238 DEB - Pass Details

Date: 17 March 2026
Orbit: 883 x 1328 km, 63.4° (Epoch: 10 January)

Event Time Altitude Azimuth Distance (km) Brightness Sun altitude
Rises 20:09:34 0° 349° (N) 4,162 6.8 -28.1°
Reaches altitude 10° 20:12:33 10° 357° (N) 3,245 6.2 -27.4°
Maximum altitude 20:19:49 38° 63° (ENE) 1,904 5.4 -25.7°
Drops below altitude 10° 20:27:17 10° 128° (SE) 3,352 6.9 -23.8°
Sets 20:30:23 0° 136° (SE) 4,312 7.4 -23.1°
